Location: Carr Mill
(33.2054°N, 85.9439°W)
Time: 07:39:32
(UTC+00:00)

ISS - Pass Details

Date: 25 June 2021
Orbit: 419 x 421 km, 51.6° (Epoch: 04 August)

Event Time Altitude Azimuth Distance (km) Brightness Sun altitude
Exits shadow 09:56:32 11° 240° (WSW) 1,463 -1.7 -7.9°
Maximum altitude 09:59:45 54° 318° (NW) 515 -3.4 -7.3°
Drops below altitude 10° 10:03:04 10° 37° (NE) 1,498 0.5 -6.8°
Sets 10:05:12 0° 42° (NE) 2,364 2.0 -6.4°
